Grayling, MI

3:35 AM EDT on April 20, 2018 (GMT -0400)
Grayling

Weather History for KGOV - November, 2011

Change the Weather History Date:

Wednesday, November 9, 2011

  Actual Average (KHTL) Record (KHTL)
Temperature  
Mean Temperature 42 °F -  
Max Temperature 51 °F 43 °F 69 °F (1999)
Min Temperature 33 °F 30 °F 0 °F (1925)
Degree Days  
Heating Degree Days 23    
Moisture  
Dew Point 40 °F    
Average Humidity 98    
Maximum Humidity 100    
Minimum Humidity 81    
Precipitation  
Precipitation 0.00 in - - ()
Sea Level Pressure  
Sea Level Pressure 29.69 in    
Wind  
Wind Speed 9 mph (East)    
Max Wind Speed 17 mph    
Max Gust Speed 31 mph    
Visibility 7 miles    
Events Rain    
Averages and records for this station are not official NWS values.
T = Trace of Precipitation, MM = Missing Value Source: NWS Daily Summary

Daily Weather History Graph

Daily Weather History Graph

Search for Another Location

Airport or City:

Astronomy

Nov. 09, 2011 Rise Set
Actual Time 7:27 AM EST 5:17 PM EST
Civil Twilight 6:56 AM EST 5:48 PM EST
Nautical Twilight 6:21 AM EST 6:23 PM EST
Astronomical Twilight 5:46 AM EST 6:57 PM EST
Moon 4:28 PM EST (11/9) 6:21 AM EST (11/9)
Length of Visible Light 10h 52m
Length of Day
9h 50m
Waxing Gibbous, 99% of the Moon is Illuminated
Nov 9
Waxing Gibbous
Nov 10
Full
Nov 18
Last Quarter
Nov 25
New
Dec 2
First Quarter

Hourly Weather History & Observations

Time (EST) Temp. Windchill Dew Point Humidity Pressure Visibility Wind Dir Wind Speed Gust Speed Precip Events Conditions
12:15 AM 37.4 °F 30.3 °F 37.4 °F 100% 30.04 in 5.0 mi NE 10.4 mph 16.1 mph N/A   Drizzle
12:34 AM 37.4 °F 31.4 °F 37.4 °F 100% 30.03 in 7.0 mi NE 8.1 mph - N/A   Light Drizzle
12:55 AM 37.4 °F 30.8 °F 37.4 °F 100% 30.02 in 10.0 mi NE 9.2 mph - N/A   Drizzle
1:15 AM 37.4 °F 31.4 °F 37.4 °F 100% 30.01 in 7.0 mi ENE 8.1 mph - N/A Rain Rain
1:34 AM 37.4 °F 30.8 °F 37.4 °F 100% 29.99 in 7.0 mi NE 9.2 mph - N/A Rain Light Rain
1:55 AM 37.4 °F 30.8 °F 37.4 °F 100% 29.99 in 10.0 mi NE 9.2 mph - N/A   Overcast
2:15 AM 37.4 °F 30.8 °F 37.4 °F 100% 29.99 in 10.0 mi ENE 9.2 mph - N/A   Overcast
2:34 AM 37.4 °F 31.4 °F 37.4 °F 100% 29.99 in 10.0 mi NE 8.1 mph - N/A   Overcast
2:55 AM 37.4 °F 30.8 °F 37.4 °F 100% 29.98 in 10.0 mi NE 9.2 mph - N/A   Drizzle
3:14 AM 37.4 °F 32.1 °F 37.4 °F 100% 29.97 in 7.0 mi NE 6.9 mph - N/A   Drizzle
3:35 AM 37.4 °F 31.4 °F 37.4 °F 100% 29.96 in 10.0 mi NE 8.1 mph - N/A Rain Rain
3:54 AM 37.4 °F 31.4 °F 37.4 °F 100% 29.95 in 10.0 mi NE 8.1 mph 16.1 mph N/A Rain Light Rain
4:15 AM 37.4 °F 31.4 °F 37.4 °F 100% 29.94 in 10.0 mi ENE 8.1 mph - N/A   Drizzle
4:35 AM 37.4 °F 32.1 °F 37.4 °F 100% 29.93 in 10.0 mi ENE 6.9 mph - N/A Rain Light Rain
4:54 AM 37.4 °F 31.4 °F 37.4 °F 100% 29.92 in 10.0 mi NE 8.1 mph - N/A Rain Rain
5:15 AM 37.4 °F 30.8 °F 37.4 °F 100% 29.91 in 4.0 mi NE 9.2 mph - N/A Rain Rain
5:35 AM 37.4 °F 31.4 °F 37.4 °F 100% 29.91 in 7.0 mi NE 8.1 mph - N/A Rain Rain
5:54 AM 37.4 °F 31.4 °F 37.4 °F 100% 29.90 in 5.0 mi NE 8.1 mph - N/A Rain Rain
6:15 AM 37.4 °F 30.8 °F 37.4 °F 100% 29.88 in 7.0 mi NE 9.2 mph - N/A Rain Rain
6:35 AM 37.4 °F 31.4 °F 37.4 °F 100% 29.87 in 10.0 mi NNE 8.1 mph - N/A Rain Light Rain
6:54 AM 37.4 °F 31.4 °F 37.4 °F 100% 29.87 in 4.0 mi NE 8.1 mph - N/A Rain Heavy Rain
7:15 AM 37.4 °F 32.1 °F 37.4 °F 100% 29.87 in 3.0 mi NE 6.9 mph - N/A Rain Rain
7:35 AM 37.4 °F 31.4 °F 37.4 °F 100% 29.85 in 5.0 mi NE 8.1 mph - N/A Rain Rain
7:54 AM 37.4 °F 30.8 °F 37.4 °F 100% 29.84 in 7.0 mi NE 9.2 mph - N/A Rain Rain
8:15 AM 39.2 °F 32.5 °F 39.2 °F 100% 29.84 in 2.0 mi ENE 10.4 mph - N/A Rain Light Rain
8:35 AM 39.2 °F 32.5 °F 39.2 °F 100% 29.82 in 1.8 mi ENE 10.4 mph - N/A Rain Light Rain
8:55 AM 39.2 °F 33.0 °F 39.2 °F 100% 29.81 in 2.5 mi ENE 9.2 mph - N/A Rain Light Rain
9:15 AM 39.2 °F 32.5 °F 39.2 °F 100% 29.79 in 3.0 mi ENE 10.4 mph 17.3 mph N/A Rain Rain
9:34 AM 39.2 °F 32.5 °F 39.2 °F 100% 29.78 in 5.0 mi ENE 10.4 mph - N/A Rain Rain
9:55 AM 39.2 °F 32.0 °F 39.2 °F 100% 29.76 in 7.0 mi ENE 11.5 mph 16.1 mph N/A Rain Light Rain
10:15 AM 39.2 °F 32.0 °F 39.2 °F 100% 29.74 in 5.0 mi ENE 11.5 mph 17.3 mph N/A Rain Rain
10:34 AM 39.2 °F 31.6 °F 39.2 °F 100% 29.72 in 10.0 mi ENE 12.7 mph - N/A Rain Light Rain
10:55 AM 41.0 °F 34.3 °F 41.0 °F 100% 29.68 in 7.0 mi NE 11.5 mph 19.6 mph N/A Rain Light Rain
11:34 AM 41.0 °F 35.2 °F 41.0 °F 100% 29.64 in 3.0 mi ENE 9.2 mph - N/A Rain Rain
11:55 AM 41.0 °F 35.8 °F 41.0 °F 100% 29.64 in 4.0 mi East 8.1 mph 16.1 mph N/A Rain Heavy Rain
12:15 PM 41.0 °F 34.7 °F 41.0 °F 100% 29.60 in 4.0 mi ENE 10.4 mph 17.3 mph N/A Rain Rain
12:34 PM 41.0 °F 34.7 °F 41.0 °F 100% 29.57 in 4.0 mi ENE 10.4 mph - N/A Rain Rain
1:15 PM 42.8 °F 37.5 °F 42.8 °F 100% 29.53 in 3.0 mi East 9.2 mph 16.1 mph N/A Rain Rain
1:34 PM 44.6 °F 39.7 °F 44.6 °F 100% 29.50 in 4.0 mi East 9.2 mph - N/A Rain Light Rain
2:14 PM 44.6 °F - 44.6 °F 100% 29.46 in 4.0 mi Calm Calm - N/A   Drizzle
2:35 PM 46.4 °F - 46.4 °F 100% 29.45 in 4.0 mi Calm Calm - N/A   Heavy Drizzle
2:55 PM 46.4 °F - 46.4 °F 100% 29.43 in 10.0 mi Calm Calm - N/A   Overcast
3:15 PM 51.8 °F - 51.8 °F 100% 29.41 in 10.0 mi SSE 6.9 mph - N/A   Overcast
3:35 PM 51.8 °F - 51.8 °F 100% 29.40 in 10.0 mi SSE 9.2 mph - N/A   Overcast
3:55 PM 51.8 °F - 51.8 °F 100% 29.38 in 10.0 mi SSE 10.4 mph - N/A   Overcast
4:14 PM 51.8 °F - 51.8 °F 100% 29.37 in 10.0 mi SSE 10.4 mph 16.1 mph N/A   Overcast
4:35 PM 51.8 °F - 51.8 °F 100% 29.37 in 10.0 mi South 11.5 mph 18.4 mph N/A Rain Rain
4:55 PM 51.8 °F - 50.0 °F 94% 29.38 in 10.0 mi SSW 13.8 mph 31.1 mph N/A   Mostly Cloudy
5:14 PM 48.2 °F - 46.4 °F 93% 29.38 in 10.0 mi SSW 12.7 mph 23.0 mph N/A   Scattered Clouds
5:35 PM 51.8 °F - 46.4 °F 82% 29.39 in 10.0 mi SSW 11.5 mph 20.7 mph N/A   Mostly Cloudy
6:14 PM 46.4 °F 40.4 °F 42.8 °F 87% 29.40 in 10.0 mi South 13.8 mph 28.8 mph N/A   Overcast
6:55 PM 46.4 °F 40.7 °F 41.0 °F 81% 29.40 in 10.0 mi South 12.7 mph 24.2 mph N/A   Overcast
7:14 PM 46.4 °F 39.8 °F 41.0 °F 81% 29.40 in 10.0 mi South 16.1 mph 25.3 mph N/A   Overcast
7:35 PM 44.6 °F 37.8 °F 41.0 °F 87% 29.39 in 10.0 mi South 15.0 mph 24.2 mph N/A   Overcast
7:54 PM 44.6 °F 38.1 °F 41.0 °F 87% 29.39 in 10.0 mi South 13.8 mph 25.3 mph N/A   Overcast
8:15 PM 44.6 °F 38.4 °F 41.0 °F 87% 29.39 in 10.0 mi SSW 12.7 mph 18.4 mph N/A   Overcast
8:35 PM 41.0 °F 32.8 °F 35.6 °F 81% 29.41 in 7.0 mi SW 16.1 mph 28.8 mph N/A   Overcast
8:54 PM 37.4 °F 28.5 °F 35.6 °F 93% 29.43 in 4.0 mi SW 15.0 mph 28.8 mph N/A Rain Rain
9:15 PM 35.6 °F 25.9 °F 35.6 °F 100% 29.45 in 4.0 mi WSW 16.1 mph 26.5 mph N/A   Drizzle
9:35 PM 33.8 °F 24.3 °F 33.8 °F 100% 29.48 in 5.0 mi West 13.8 mph 31.1 mph N/A Rain Rain
9:54 PM 33.8 °F 23.2 °F 33.8 °F 100% 29.49 in 5.0 mi West 17.3 mph 29.9 mph N/A Rain Light Rain
10:15 PM 33.8 °F 23.5 °F 33.8 °F 100% 29.52 in 4.0 mi West 16.1 mph 23.0 mph N/A Rain Light Rain
10:35 PM 33.8 °F 22.8 °F 33.8 °F 100% 29.53 in 4.0 mi West 18.4 mph 24.2 mph N/A Rain Light Rain
10:54 PM 33.8 °F 23.2 °F 33.8 °F 100% 29.55 in 5.0 mi West 17.3 mph 27.6 mph N/A Rain Light Rain
11:15 PM 33.8 °F 23.2 °F 33.8 °F 100% 29.58 in 7.0 mi West 17.3 mph 31.1 mph N/A Snow Light Snow
11:34 PM 33.8 °F 23.9 °F 33.8 °F 100% 29.60 in 7.0 mi WSW 15.0 mph 28.8 mph N/A Snow Light Snow
11:54 PM 32.0 °F 22.1 °F 32.0 °F 100% 29.61 in 2.5 mi WSW 13.8 mph 20.7 mph N/A Snow Light Snow